WB8ZTP Weather Reports


Display with metric or nautical units.
time (UTC)temp
F
wind
direction
speed
MPH
gust
MPH
rain 1hr
in
rain 24hr
in
rain mn
in
humidity
%
barometer
mb
20260510084527 57 315 2.0 5.0 0.00 0.00 0.00 80 1011.9
20260510083025 58 342 2.0 6.0 0.00 0.00 0.00 80 1011.7
20260510081535 58 247 0.0 4.0 0.00 0.00 0.00 78 1011.4
20260510080027 58 287 0.0 5.0 0.00 0.00 0.00 77 1011.4
20260510074524 58 239 0.0 6.0 0.00 0.00 0.00 77 1011.6
20260510073023 59 335 0.0 4.0 0.00 0.00 0.00 76 1011.4
20260510071522 59 248 1.0 5.0 0.00 0.00 0.00 76 1011.5
20260510070024 60 286 1.0 3.0 0.00 0.00 0.00 75 1011.4
20260510064521 61 219 0.0 5.0 0.00 0.00 0.00 73 1011.4
20260510063021 61 215 3.0 9.0 0.00 0.00 0.00 75 1011.6
20260510061525 61 196 3.0 9.0 0.00 0.00 0.00 78 1011.7
20260510060018 61 237 5.0 15.0 0.00 0.00 0.00 79 1011.8
20260510054516 61 263 1.0 6.0 0.00 0.00 0.00 79 1011.7
20260510053014 61 189 2.0 8.0 0.00 0.00 0.00 78 1011.6
20260510051526 61 206 4.0 9.0 0.00 0.00 0.00 77 1011.3
20260510050012 61 186 3.0 8.0 0.00 0.00 0.00 78 1011.4
20260510044510 60 187 2.0 8.0 0.00 0.00 0.00 79 1011.2
20260510043017 59 207 3.0 7.0 0.00 0.00 0.00 80 1011.3
20260510041504 58 175 2.0 6.0 0.00 0.00 0.00 81 1011.1
20260510040001 58 178 0.0 3.0 0.00 0.00 0.00 83 1011.0
20260510034607 58 174 0.0 2.0 0.00 0.00 0.00 82 1010.9
20260510033121 59 166 0.0 4.0 0.00 0.00 0.00 80 1010.7
20260510031603 59 173 0.0 4.0 0.00 0.00 0.00 79 1010.6
20260510030059 59 186 0.0 4.0 0.00 0.00 0.00 80 1010.7
20260510024612 59 173 0.0 4.0 0.00 0.00 0.00 81 1010.7
20260510023101 58 219 0.0 4.0 0.00 0.00 0.00 83 1010.6
20260510021558 58 182 0.0 3.0 0.00 0.00 0.00 82 1010.5
20260510020058 59 187 0.0 4.0 0.00 0.00 0.00 80 1010.2
20260510014614 60 182 0.0 3.0 0.00 0.00 0.00 78 1010.0
20260510013104 61 182 1.0 6.0 0.00 0.00 0.00 76 1009.9
20260510011555 61 172 0.0 1.0 0.00 0.00 0.00 75 1009.4
20260510010055 62 178 0.0 2.0 0.00 0.00 0.00 71 1009.6
20260510004600 64 194 0.0 2.0 0.00 0.00 0.00 68 1009.4
20260510003054 65 178 1.0 5.0 0.00 0.00 0.00 65 1009.2
20260510001553 66 167 2.0 6.0 0.00 0.00 0.00 61 1008.9
20260510000052 67 218 3.0 9.0 0.00 0.00 0.00 60 1008.8
20260509234553 67 221 2.0 7.0 0.00 0.00 0.00 61 1008.7
20260509233053 68 192 2.0 10.0 0.00 0.00 0.00 60 1008.6
20260509231604 69 184 3.0 10.0 0.00 0.00 0.00 60 1008.5
20260509230051 69 211 3.0 16.0 0.00 0.00 0.00 57 1008.5
20260509224551 69 202 4.0 12.0 0.00 0.00 0.00 58 1008.4
20260509223053 69 138 3.0 15.0 0.00 0.00 0.00 57 1008.4
20260509221549 69 221 4.0 14.0 0.00 0.00 0.00 59 1008.5
20260509220047 70 159 2.0 15.0 0.00 0.00 0.00 59 1008.6
20260509214546 69 207 3.0 15.0 0.00 0.00 0.00 59 1008.6
20260509213046 69 227 3.0 16.0 0.00 0.00 0.00 61 1008.7
20260509211553 70 196 5.0 10.0 0.00 0.00 0.00 58 1008.7
20260509210052 69 192 5.0 10.0 0.00 0.00 0.00 61 1008.9
20260509204539 69 199 4.0 15.0 0.00 0.00 0.00 62 1009.0
20260509203037 68 222 2.0 17.0 0.00 0.00 0.00 61 1009.1
20260509201536 68 225 8.0 14.0 0.00 0.00 0.00 60 1009.1
20260509200036 68 140 7.0 14.0 0.00 0.00 0.00 62 1009.3
20260509194534 68 209 7.0 17.0 0.00 0.00 0.00 63 1009.4
20260509193029 67 217 4.0 15.0 0.00 0.00 0.00 66 1009.6
20260509191528 66 238 3.0 12.0 0.00 0.00 0.00 69 1009.8
20260509190025 66 215 5.0 11.0 0.00 0.00 0.00 71 1009.9
20260509184533 65 207 7.0 15.0 0.00 0.00 0.00 70 1010.0
20260509183023 66 229 3.0 11.0 0.00 0.00 0.00 73 1009.9
20260509181519 64 217 3.0 8.0 0.00 0.00 0.00 75 1010.2
20260509180023 64 197 5.0 12.0 0.00 0.00 0.00 74 1010.3
20260509174516 63 196 4.0 12.0 0.00 0.00 0.00 77 1010.4
20260509173046 63 156 5.0 11.0 0.00 0.00 0.00 77 1010.5
20260509171522 62 202 3.0 10.0 0.00 0.00 0.00 79 1010.4
20260509170014 61 236 5.0 10.0 0.00 0.00 0.00 80 1010.4
20260509164508 61 225 4.0 9.0 0.00 0.00 0.00 81 1010.7
20260509163008 60 221 4.0 12.0 0.00 0.00 0.00 81 1010.7
20260509161504 60 246 5.0 11.0 0.00 0.00 0.00 83 1010.6
20260509154558 58 215 2.0 9.0 0.00 0.00 0.00 87 1010.4
20260509153056 57 240 5.0 11.0 0.00 0.00 0.00 87 1010.3
20260509151615 57 227 4.0 9.0 0.00 0.00 0.00 88 1010.2
20260509150053 56 202 3.0 10.0 0.00 0.00 0.00 89 1010.1
20260509144552 56 192 5.0 11.0 0.00 0.00 0.00 89 1010.1
20260509143057 55 181 5.0 11.0 0.00 0.00 0.00 88 1010.1
20260509141551 55 207 5.0 9.0 0.00 0.00 0.00 87 1010.1
20260509140046 54 205 5.0 9.0 0.00 0.00 0.00 87 1010.1
20260509134546 53 191 3.0 7.0 0.00 0.00 0.00 87 1010.2
20260509133044 53 189 2.0 6.0 0.00 0.00 0.00 87 1010.3
20260509131555 52 211 0.0 5.0 0.00 0.00 0.00 87 1010.2
20260509130100 52 200 1.0 5.0 0.00 0.00 0.00 87 1009.8
20260509124541 52 152 2.0 6.0 0.00 0.00 0.00 87 1009.9
20260509123102 52 157 1.0 5.0 0.00 0.00 0.00 87 1009.9
20260509121539 52 166 2.0 7.0 0.00 0.00 0.00 87 1010.0
20260509120038 52 219 1.0 6.0 0.00 0.00 0.00 87 1010.3
20260509114532 52 205 1.0 6.0 0.00 0.00 0.00 87 1010.3
20260509113031 52 193 1.0 5.0 0.00 0.00 0.00 87 1010.4
20260509111630 52 150 2.0 7.0 0.00 0.00 0.00 87 1010.3
20260509110029 52 236 2.0 7.0 0.00 0.00 0.00 87 1010.4
20260509104528 52 214 2.0 9.0 0.00 0.00 0.00 87 1010.4
20260509103025 52 166 4.0 8.0 0.00 0.00 0.00 87 1010.1
20260509101534 52 191 5.0 12.0 0.00 0.00 0.00 87 1010.2
20260509100022 51 204 2.0 6.0 0.00 0.00 0.00 87 1010.2
20260509094530 51 178 1.0 6.0 0.00 0.00 0.00 87 1010.3
20260509093020 51 173 1.0 4.0 0.00 0.00 0.00 87 1010.3
20260509091518 51 149 1.0 5.0 0.00 0.00 0.00 88 1010.5
20260509090018 51 185 0.0 3.0 0.00 0.00 0.00 88 1010.6